Location: Unspecified
(43.4354°N, 0.0000°E)
Time: 23:31:12
(UTC+00:00)

LO-87 - Visible Passes

Search period start: 19 July 2019 00:00
Search period end: 29 July 2019 00:00
Orbit: 474 x 493 km, 97.4° (Epoch: 19 July)

Date Brightness Start Highest point End Pass type
(mag) Time Alt. Az. Time Alt. Az. Time Alt. Az.
19 Jul ? 21:54:03 16° ENE 21:54:23 17° ENE 21:56:44 10° NNE visible
19 Jul ? 23:28:24 29° WNW 23:28:24 29° WNW 23:30:53 10° NNW visible
20 Jul ? 23:03:40 53° NW 23:03:40 53° NW 23:06:35 10° NNW visible
21 Jul ? 22:38:55 49° NE 22:38:55 49° NE 22:41:59 10° N visible
22 Jul ? 22:14:11 27° ENE 22:14:11 27° ENE 22:17:06 10° NNE visible
22 Jul ? 23:48:32 17° WNW 23:48:32 17° WNW 23:50:08 10° NW visible
23 Jul ? 21:49:27 15° ENE 21:49:40 15° ENE 21:51:44 10° NNE visible
23 Jul ? 23:23:48 31° WNW 23:23:48 31° WNW 23:26:11 10° NNW visible
24 Jul ? 22:59:04 49° NNW 22:59:04 49° NNW 23:01:49 10° NNW visible
25 Jul ? 22:34:19 41° NE 22:34:19 41° NE 22:37:09 10° N visible
26 Jul ? 22:09:35 23° ENE 22:09:35 23° ENE 22:12:11 10° NNE visible
26 Jul ? 23:43:56 18° WNW 23:43:56 18° WNW 23:45:31 10° NW visible
27 Jul ? 21:44:51 13° ENE 21:44:55 13° ENE 21:46:37 10° NE visible
27 Jul ? 23:19:12 31° NW 23:19:12 31° NW 23:21:26 10° NNW visible
28 Jul ? 22:54:28 44° N 22:54:28 44° N 22:57:00 10° N visible
